| time (UTC) | temp C | wind direction | speed KPH | gust KPH | rain 1hr cm | rain 24hr cm | rain mn cm | humidity % | barometer mb |
| 20260510113516 | -17 | 213 | 3.2 | 12.9 | 0.00 | 0.00 | 0.00 | ||
| 20260510112542 | -17 | 203 | 3.2 | 17.7 | 0.00 | 0.00 | 0.00 | ||
| 20260510111540 | -17 | 215 | 1.6 | 9.7 | 0.00 | 0.00 | 0.00 | ||
| 20260510110558 | -17 | 200 | 1.6 | 12.9 | 0.00 | 0.00 | 0.00 | ||
| 20260510105616 | -17 | 202 | 4.8 | 14.5 | 0.00 | 0.00 | 0.00 | ||
| 20260510104534 | -17 | 143 | 3.2 | 8.0 | 0.00 | 0.00 | 0.00 | ||
| 20260510103531 | -17 | 202 | 4.8 | 12.9 | 0.00 | 0.00 | 0.00 | ||
| 20260510102516 | -17 | 196 | 4.8 | 12.9 | 0.00 | 0.00 | 0.00 | ||
| 20260510101542 | -17 | 152 | 4.8 | 12.9 | 0.00 | 0.00 | 0.00 | ||
| 20260510100539 | -17 | 203 | 3.2 | 19.3 | 0.00 | 0.00 | 0.00 | ||
| 20260510095537 | -17 | 0.0 | 0.0 | 0.00 | 0.00 | 0.00 | |||
| 20260510094536 | -17 | 222 | 1.6 | 16.1 | 0.00 | 0.00 | 0.00 | ||
| 20260510093533 | -17 | 0.0 | 0.0 | 0.00 | 0.00 | 0.00 | |||
| 20260510092532 | -17 | 206 | 6.4 | 12.9 | 0.00 | 0.00 | 0.00 | ||
| 20260510091515 | -17 | 219 | 4.8 | 14.5 | 0.00 | 0.00 | 0.00 | ||
| 20260510090541 | -17 | 237 | 4.8 | 12.9 | 0.00 | 0.00 | 0.00 | ||
| 20260510085540 | -17 | 226 | 9.7 | 16.1 | 0.00 | 0.00 | 0.00 | ||
| 20260510084538 | -17 | 217 | 6.4 | 12.9 | 0.00 | 0.00 | 0.00 | ||
| 20260510083536 | -17 | 216 | 3.2 | 16.1 | 0.00 | 0.00 | 0.00 | ||
| 20260510082533 | -17 | 230 | 6.4 | 12.9 | 0.00 | 0.00 | 0.00 | ||
| 20260510081532 | -17 | 219 | 6.4 | 14.5 | 0.00 | 0.00 | 0.00 | ||
| 20260510080515 | -17 | 237 | 8.0 | 12.9 | 0.00 | 0.00 | 0.00 | ||
| 20260510075541 | -17 | 227 | 6.4 | 9.7 | 0.00 | 0.00 | 0.00 | ||
| 20260510074539 | -17 | 251 | 4.8 | 9.7 | 0.00 | 0.00 | 0.00 | ||
| 20260510073537 | -17 | 239 | 6.4 | 12.9 | 0.00 | 0.00 | 0.00 | ||
| 20260510072535 | -17 | 227 | 6.4 | 12.9 | 0.00 | 0.00 | 0.00 | ||
| 20260510071534 | -17 | 261 | 4.8 | 12.9 | 0.00 | 0.00 | 0.00 | ||
| 20260510070532 | -17 | 230 | 8.0 | 16.1 | 0.00 | 0.00 | 0.00 | ||
| 20260510065515 | -17 | 242 | 4.8 | 9.7 | 0.00 | 0.00 | 0.00 | ||
| 20260510064542 | -17 | 227 | 6.4 | 14.5 | 0.00 | 0.00 | 0.00 | ||
| 20260510063539 | -17 | 233 | 4.8 | 12.9 | 0.00 | 0.00 | 0.00 | ||
| 20260510062537 | -17 | 227 | 4.8 | 16.1 | 0.00 | 0.00 | 0.00 | ||
| 20260510061535 | -17 | 244 | 4.8 | 9.7 | 0.00 | 0.00 | 0.00 | ||
| 20260510060533 | -17 | 225 | 3.2 | 11.3 | 0.00 | 0.00 | 0.00 | ||
| 20260510055551 | -17 | 223 | 1.6 | 9.7 | 0.00 | 0.00 | 0.00 | ||
| 20260510054515 | -17 | 0.0 | 0.0 | 0.00 | 0.00 | 0.00 | |||
| 20260510053541 | -17 | 236 | 0.0 | 6.4 | 0.00 | 0.00 | 0.00 | ||
| 20260510052539 | -17 | 236 | 0.0 | 8.0 | 0.00 | 0.00 | 0.00 | ||
| 20260510051558 | -17 | 0.0 | 0.0 | 0.00 | 0.00 | 0.00 | |||
| 20260510050555 | -17 | 224 | 0.0 | 8.0 | 0.00 | 0.00 | 0.00 | ||
| 20260510045533 | -17 | 235 | 1.6 | 9.7 | 0.00 | 0.00 | 0.00 | ||
| 20260510044531 | -17 | 243 | 1.6 | 9.7 | 0.00 | 0.00 | 0.00 | ||
| 20260510043515 | -17 | 221 | 3.2 | 9.7 | 0.00 | 0.00 | 0.00 | ||
| 20260510042541 | -17 | 0.0 | 0.0 | 0.00 | 0.00 | 0.00 | |||
| 20260510041539 | -17 | 0.0 | 0.0 | 0.00 | 0.00 | 0.00 | |||
| 20260510040537 | -17 | 0.0 | 0.0 | 0.00 | 0.00 | 0.00 | |||
| 20260510035535 | -17 | 0.0 | 0.0 | 0.00 | 0.00 | 0.00 | |||
| 20260510034533 | -17 | 0.0 | 0.0 | 0.00 | 0.00 | 0.00 | |||
| 20260510033531 | -17 | 0.0 | 0.0 | 0.00 | 0.00 | 0.00 | |||
| 20260510032515 | -17 | 0.0 | 6.4 | 0.00 | 0.00 | 0.00 | |||
| 20260510031541 | -17 | 253 | 4.8 | 8.0 | 0.00 | 0.00 | 0.00 | ||
| 20260510030539 | -17 | 243 | 6.4 | 9.7 | 0.00 | 0.00 | 0.00 | ||
| 20260510025557 | -17 | 248 | 8.0 | 9.7 | 0.00 | 0.00 | 0.00 | ||
| 20260510024535 | -17 | 234 | 9.7 | 14.5 | 0.00 | 0.00 | 0.00 | ||
| 20260510023533 | -17 | 239 | 8.0 | 12.9 | 0.00 | 0.00 | 0.00 | ||
| 20260510022531 | -17 | 239 | 8.0 | 11.3 | 0.00 | 0.00 | 0.00 | ||
| 20260510021535 | -17 | 0.0 | 9.7 | 0.00 | 0.00 | 0.00 | |||
| 20260510020541 | -17 | 258 | 0.0 | 6.4 | 0.00 | 0.00 | 0.00 | ||
| 20260510015539 | -17 | 244 | 1.6 | 9.7 | 0.00 | 0.00 | 0.00 | ||
| 20260510014537 | -17 | 240 | 3.2 | 11.3 | 0.00 | 0.00 | 0.00 | ||
| 20260510013555 | -17 | 0.0 | 0.0 | 0.00 | 0.00 | 0.00 | |||
| 20260510012533 | -17 | 0.0 | 0.0 | 0.00 | 0.00 | 0.00 | |||
| 20260510011531 | -17 | 0.0 | 0.0 | 0.00 | 0.00 | 0.00 | |||
| 20260510010515 | -17 | 0.0 | 0.0 | 0.00 | 0.00 | 0.00 | |||
| 20260510005541 | -17 | 0.0 | 0.0 | 0.00 | 0.00 | 0.00 | |||
| 20260510004539 | -17 | 0.0 | 0.0 | 0.00 | 0.00 | 0.00 | |||
| 20260510003537 | -17 | 0.0 | 0.0 | 0.00 | 0.00 | 0.00 | |||
| 20260510002535 | -17 | 0.0 | 0.0 | 0.00 | 0.00 | 0.00 | |||
| 20260510001533 | -17 | 0.0 | 0.0 | 0.00 | 0.00 | 0.00 | |||
| 20260510000517 | -17 | 0.0 | 0.0 | 0.00 | 0.00 | 0.00 | |||
| 20260509235515 | -17 | 0.0 | 0.0 | 0.00 | 0.00 | 0.00 | |||
| 20260509234541 | -17 | 0.0 | 0.0 | 0.00 | 0.00 | 0.00 | |||
| 20260509233539 | -17 | 0.0 | 0.0 | 0.00 | 0.00 | 0.00 | |||
| 20260509232537 | -17 | 0.0 | 0.0 | 0.00 | 0.00 | 0.00 | |||
| 20260509231535 | -17 | 0.0 | 0.0 | 0.00 | 0.00 | 0.00 | |||
| 20260509230533 | -17 | 0.0 | 0.0 | 0.00 | 0.00 | 0.00 | |||
| 20260509225517 | -17 | 0.0 | 0.0 | 0.00 | 0.00 | 0.00 | |||
| 20260509224515 | -17 | 0.0 | 0.0 | 0.00 | 0.00 | 0.00 | |||
| 20260509223541 | -17 | 0.0 | 0.0 | 0.00 | 0.00 | 0.00 | |||
| 20260509222559 | -17 | 0.0 | 0.0 | 0.00 | 0.00 | 0.00 | |||
| 20260509221537 | -17 | 0.0 | 0.0 | 0.00 | 0.00 | 0.00 | |||
| 20260509220555 | -17 | 0.0 | 0.0 | 0.00 | 0.00 | 0.00 | |||
| 20260509215533 | -17 | 0.0 | 0.0 | 0.00 | 0.00 | 0.00 | |||
| 20260509214517 | -17 | 0.0 | 0.0 | 0.00 | 0.00 | 0.00 | |||
| 20260509213515 | -17 | 0.0 | 0.0 | 0.00 | 0.00 | 0.00 | |||
| 20260509212541 | -17 | 0.0 | 0.0 | 0.00 | 0.00 | 0.00 | |||
| 20260509211539 | -17 | 0.0 | 0.0 | 0.00 | 0.00 | 0.00 | |||
| 20260509210537 | -17 | 0.0 | 0.0 | 0.00 | 0.00 | 0.00 | |||
| 20260509205535 | -17 | 0.0 | 0.0 | 0.00 | 0.00 | 0.00 | |||
| 20260509204533 | -17 | 0.0 | 0.0 | 0.00 | 0.00 | 0.00 | |||
| 20260509203517 | -17 | 0.0 | 0.0 | 0.00 | 0.00 | 0.00 | |||
| 20260509202515 | -17 | 0.0 | 0.0 | 0.00 | 0.00 | 0.00 | |||
| 20260509201601 | -17 | 0.0 | 0.0 | 0.00 | 0.00 | 0.00 | |||
| 20260509200539 | -17 | 0.0 | 0.0 | 0.00 | 0.00 | 0.00 | |||
| 20260509195537 | -17 | 0.0 | 0.0 | 0.00 | 0.00 | 0.00 | |||
| 20260509194535 | -17 | 0.0 | 0.0 | 0.00 | 0.00 | 0.00 | |||
| 20260509193553 | -17 | 0.0 | 0.0 | 0.00 | 0.00 | 0.00 | |||
| 20260509192517 | -17 | 0.0 | 0.0 | 0.00 | 0.00 | 0.00 | |||
| 20260509191515 | -17 | 0.0 | 0.0 | 0.00 | 0.00 | 0.00 | |||
| 20260509190541 | -17 | 0.0 | 0.0 | 0.00 | 0.00 | 0.00 | |||
| 20260509185539 | -17 | 0.0 | 0.0 | 0.00 | 0.00 | 0.00 | |||
| 20260509184537 | -17 | 0.0 | 0.0 | 0.00 | 0.00 | 0.00 | |||
| 20260509183555 | -17 | 0.0 | 0.0 | 0.00 | 0.00 | 0.00 | |||
| 20260509182533 | -17 | 0.0 | 0.0 | 0.00 | 0.00 | 0.00 | |||
| 20260509181537 | -17 | 0.0 | 0.0 | 0.00 | 0.00 | 0.00 | |||
| 20260509180515 | -17 | 0.0 | 0.0 | 0.00 | 0.00 | 0.00 | |||
| 20260509175541 | -17 | 0.0 | 0.0 | 0.00 | 0.00 | 0.00 | |||
| 20260509174539 | -17 | 0.0 | 0.0 | 0.00 | 0.00 | 0.00 | |||
| 20260509173537 | -17 | 0.0 | 3.2 | 0.00 | 0.00 | 0.00 | |||
| 20260509172535 | -17 | 319 | 0.0 | 8.0 | 0.00 | 0.00 | 0.00 | ||
| 20260509171533 | -17 | 0.0 | 0.0 | 0.00 | 0.00 | 0.00 | |||
| 20260509170517 | -17 | 0.0 | 0.0 | 0.00 | 0.00 | 0.00 | |||
| 20260509165535 | -17 | 0.0 | 6.4 | 0.00 | 0.00 | 0.00 | |||
| 20260509164541 | -17 | 0.0 | 0.0 | 0.00 | 0.00 | 0.00 | |||
| 20260509163539 | -17 | 278 | 0.0 | 8.0 | 0.00 | 0.00 | 0.00 | ||
| 20260509162537 | -17 | 0.0 | 0.0 | 0.00 | 0.00 | 0.00 | |||
| 20260509161555 | -17 | 319 | 1.6 | 9.7 | 0.00 | 0.00 | 0.00 | ||
| 20260509160553 | -17 | 0.0 | 0.0 | 0.00 | 0.00 | 0.00 | |||
| 20260509154515 | -17 | 0.0 | 0.0 | 0.00 | 0.00 | 0.00 | |||
| 20260509153541 | -17 | 0.0 | 6.4 | 0.00 | 0.00 | 0.00 | |||
| 20260509152539 | -17 | 115 | 1.6 | 6.4 | 0.00 | 0.00 | 0.00 | ||
| 20260509151537 | -17 | 0.0 | 0.0 | 0.00 | 0.00 | 0.00 | |||
| 20260509150535 | -17 | 0.0 | 9.7 | 0.00 | 0.00 | 0.00 | |||
| 20260509145533 | -17 | 0.0 | 0.0 | 0.00 | 0.00 | 0.00 | |||
| 20260509144517 | -17 | 0.0 | 0.0 | 0.00 | 0.00 | 0.00 | |||
| 20260509143603 | -17 | 0.0 | 0.0 | 0.00 | 0.00 | 0.00 | |||
| 20260509142541 | -17 | 0.0 | 0.0 | 0.00 | 0.00 | 0.00 | |||
| 20260509141539 | -17 | 0.0 | 0.0 | 0.00 | 0.00 | 0.00 | |||
| 20260509140537 | -17 | 0.0 | 0.0 | 0.00 | 0.00 | 0.00 | |||
| 20260509135535 | -17 | 0.0 | 0.0 | 0.00 | 0.00 | 0.00 | |||
| 20260509134532 | -17 | 0.0 | 0.0 | 0.00 | 0.00 | 0.00 | |||
| 20260509133517 | -17 | 0.0 | 0.0 | 0.00 | 0.00 | 0.00 | |||
| 20260509132543 | -17 | 0.0 | 0.0 | 0.00 | 0.00 | 0.00 | |||
| 20260509131541 | -17 | 0.0 | 0.0 | 0.00 | 0.00 | 0.00 | |||
| 20260509130539 | -17 | 0.0 | 0.0 | 0.00 | 0.00 | 0.00 | |||
| 20260509125536 | -17 | 0.0 | 0.0 | 0.00 | 0.00 | 0.00 | |||
| 20260509124535 | -17 | 0.0 | 0.0 | 0.00 | 0.00 | 0.00 | |||
| 20260509123553 | -17 | 0.0 | 0.0 | 0.00 | 0.00 | 0.00 | |||
| 20260509122516 | -17 | 0.0 | 0.0 | 0.00 | 0.00 | 0.00 | |||
| 20260509121543 | -17 | 0.0 | 0.0 | 0.00 | 0.00 | 0.00 | |||
| 20260509120601 | -17 | 0.0 | 0.0 | 0.00 | 0.00 | 0.00 | |||
| 20260509115539 | -17 | 0.0 | 0.0 | 0.00 | 0.00 | 0.00 | |||
| 20260509114537 | -17 | 0.0 | 0.0 | 0.00 | 0.00 | 0.00 |